"startDT [UTC]","vpos","CH4 [ppm]","stdev(CH4) [ppm]","CO2 [ppm]","stdev(CO2) [ppm]","H2O_reported [%]","stdev(H2O_reported)","CavityPressure [torr]","CavityTemp [C]","OutletValve","CH4_dry [ppm]","CO2_dry [ppm]","DasTemp [C]","EtalonTemp [C]","WarmBoxTemp [C]","MPVPosition","T_ECpre [C]","T_EC1 [C]","T_EC2 [C]","p_inlet [hPa]","p_in [hPa]","p_out [hPa]","T_inlet [C]","RH_inlet [%]","dwpt_inlet [C]","T_vent [C]","RH_vent [%]","dwpt_vent [C]","flow_vent [l min-1]","flow_inlet [l min-1]","dwpt_sample [C]","T_room [C]"
2013-11-13 00:00:00,0.0,1.92398,0.00053,399.247,0.035,0.0744,0.0011,139.998,45.000,31478.38292,1.92533,399.608,31.250,45.059,45.000,0.00,0.11,-272.57,-272.64,-15,566,1,18.2,2.9,-28.2,18.2,3.0,-27.5,5.73,2.59,-13.1,24.6
2013-11-13 00:01:00,0.0,1.92408,0.00034,399.200,0.023,0.0742,0.0017,140.006,45.000,31483.61790,1.92550,399.552,31.250,45.059,45.000,0.00,0.11,-272.58,-272.63,-16,566,1,18.2,2.9,-28.2,18.3,3.0,-27.6,5.73,2.58,-13.1,24.6
2013-11-13 00:02:00,0.0,1.92433,0.00014,399.244,0.019,0.0744,0.0012,139.997,45.000,31480.65222,1.92569,399.598,31.250,45.059,45.000,0.00,0.11,-272.58,-272.64,-16,566,1,18.2,2.9,-28.2,18.3,3.0,-27.6,5.73,2.56,-13.1,24.6
2013-11-13 00:03:00,0.0,1.92387,0.00044,399.192,0.002,0.0748,0.0016,140.000,45.000,31482.90418,1.92545,399.557,31.250,45.059,45.000,0.00,0.11,-272.58,-272.64,-16,566,1,18.2,2.8,-28.3,18.3,3.0,-27.6,5.73,2.54,-13.1,24.6
2013-11-13 00:04:00,0.0,1.92314,0.00020,399.239,0.022,0.0739,0.0015,140.008,45.000,31485.89765,1.92456,399.587,31.250,45.059,45.000,0.00,0.11,-272.57,-272.63,-16,566,1,18.2,2.8,-28.3,18.3,3.0,-27.6,5.73,2.53,-13.1,24.6
2013-11-13 00:05:00,0.0,1.92449,0.00062,399.199,0.048,0.0739,0.0017,140.004,45.000,31483.74960,1.92565,399.558,31.250,45.059,45.000,0.00,0.11,-272.58,-272.64,-15,566,1,18.2,2.8,-28.3,18.3,3.0,-27.6,5.73,2.53,-13.1,24.6
2013-11-13 00:06:00,0.0,1.92453,0.00034,399.197,0.014,0.0735,0.0023,139.997,45.000,31483.23956,1.92608,399.553,31.250,45.059,45.000,0.00,0.11,-272.58,-272.64,-16,566,1,18.2,2.8,-28.3,18.3,3.0,-27.6,5.73,2.54,-13.1,24.6
2013-11-13 00:07:00,0.0,1.92446,0.00027,399.197,0.038,0.0736,0.0016,140.001,45.000,31482.68318,1.92581,399.545,31.248,45.059,45.000,0.00,0.11,-272.58,-272.64,-16,567,1,18.2,2.9,-28.3,18.3,3.0,-27.7,5.73,2.56,-13.1,24.5
2013-11-13 00:08:00,0.0,1.92451,0.00076,399.144,0.025,0.0735,0.0011,140.002,45.000,31484.18224,1.92605,399.508,31.253,45.059,45.000,0.00,0.11,-272.57,-272.63,-16,566,1,18.1,2.9,-28.3,18.2,3.0,-27.7,5.73,2.59,-13.1,24.5
2013-11-13 00:09:00,0.0,1.92418,0.00052,399.146,0.036,0.0736,0.0003,140.000,45.000,31482.06730,1.92546,399.493,31.250,45.059,45.000,0.00,0.11,-272.58,-272.64,-16,566,1,18.1,2.8,-28.3,18.2,3.0,-27.7,5.73,2.59,-13.1,24.5
2013-11-13 00:10:00,0.0,1.92407,0.00069,399.179,0.050,0.0753,0.0013,140.003,45.000,31483.72290,1.92533,399.531,31.250,45.059,45.000,0.00,0.11,-272.58,-272.64,-16,566,1,18.1,2.8,-28.3,18.2,3.0,-27.7,5.73,2.58,-13.1,24.5
2013-11-13 00:11:00,0.0,1.92413,0.00091,399.265,0.000,0.0750,0.0007,139.989,45.000,31479.05933,1.92552,399.627,31.250,45.059,45.000,0.00,0.11,-272.57,-272.64,-15,566,1,18.1,2.9,-28.3,18.2,3.0,-27.6,5.73,2.54,-13.1,24.5
2013-11-13 00:12:00,0.0,1.92557,0.00075,399.287,0.029,0.0760,0.0010,140.000,45.000,31480.44347,1.92704,399.648,31.250,45.059,45.000,0.00,0.11,-272.58,-272.64,-16,566,1,18.1,2.9,-28.2,18.2,3.0,-27.6,5.73,2.52,-13.1,24.5
2013-11-13 00:13:00,0.0,1.92692,0.00088,399.268,0.023,0.0749,0.0009,139.996,45.000,31477.77552,1.92804,399.635,31.250,45.059,45.000,0.00,0.11,-272.57,-272.64,-16,566,1,18.1,2.9,-28.2,18.2,3.0,-27.6,5.73,2.53,-13.2,24.5
2013-11-13 00:14:00,0.0,1.92558,0.00064,399.253,0.009,0.0741,0.0006,140.002,45.000,31480.19173,1.92733,399.608,31.242,45.059,45.000,0.00,0.11,-272.57,-272.64,-16,566,1,18.1,2.9,-28.1,18.2,3.1,-27.5,5.73,2.55,-13.2,24.5
2013-11-13 00:15:00,0.0,1.92528,0.00029,399.283,0.018,0.0749,0.0019,140.000,45.000,31480.16328,1.92662,399.640,31.214,45.059,45.000,0.00,0.11,-272.57,-272.63,-16,566,1,18.1,2.9,-28.1,18.2,3.1,-27.4,5.73,2.57,-13.1,24.5
2013-11-13 00:16:00,0.0,1.92622,0.00033,399.268,0.028,0.0769,0.0011,139.999,45.000,31478.10388,1.92760,399.640,31.200,45.059,45.000,0.00,0.11,-272.58,-272.64,-15,566,1,18.1,3.0,-27.9,18.2,3.1,-27.3,5.73,2.59,-13.2,24.5
2013-11-13 00:17:00,0.0,1.92598,0.00030,399.234,0.023,0.0776,0.0009,140.004,45.000,31480.15908,1.92753,399.608,31.215,45.059,45.000,0.00,0.11,-272.58,-272.64,-15,566,1,18.1,3.0,-27.8,18.2,3.2,-27.2,5.73,2.59,-13.2,24.5
2013-11-13 00:18:00,0.0,1.92618,0.00034,399.221,0.016,0.0788,0.0004,140.003,45.000,31480.46628,1.92757,399.601,31.213,45.059,45.000,0.00,0.11,-272.58,-272.63,-16,566,1,18.1,3.0,-27.7,18.2,3.2,-27.1,5.73,2.57,-13.2,24.5
2013-11-13 00:19:00,0.0,1.92597,0.00045,399.282,0.050,0.0800,0.0020,140.003,45.000,31479.61051,1.92750,399.659,31.208,45.059,45.000,0.00,0.11,-272.58,-272.64,-16,566,1,18.1,3.1,-27.5,18.2,3.2,-26.9,5.73,2.55,-13.2,24.5
2013-11-13 00:20:00,0.0,1.92621,0.00040,399.231,0.011,0.0809,0.0014,140.005,45.000,31480.11702,1.92763,399.624,31.199,45.059,45.000,0.00,0.11,-272.58,-272.64,-16,566,1,18.1,3.1,-27.4,18.2,3.3,-26.8,5.73,2.52,-13.2,24.5
2013-11-13 00:21:00,0.0,1.92537,0.00101,399.225,0.031,0.0826,0.0011,140.000,45.000,31477.55627,1.92736,399.615,31.206,45.059,45.000,0.00,0.11,-272.57,-272.64,-15,566,1,18.1,3.1,-27.3,18.2,3.3,-26.7,5.73,2.53,-13.2,24.5
2013-11-13 00:22:00,0.0,1.92258,0.00071,399.372,0.008,0.0816,0.0015,139.998,45.000,31477.67598,1.92451,399.756,31.188,45.059,45.000,0.00,0.11,-272.58,-272.63,-15,566,1,18.1,3.2,-27.2,18.2,3.3,-26.6,5.73,2.55,-13.2,24.5
2013-11-13 00:23:00,0.0,1.92191,0.00043,399.435,0.057,0.0827,0.0016,140.001,45.000,31474.62747,1.92348,399.820,31.193,45.059,45.000,0.00,0.11,-272.58,-272.64,-16,566,1,18.1,3.2,-27.1,18.2,3.3,-26.5,5.73,2.58,-13.2,24.5
2013-11-13 00:24:00,0.0,1.92157,0.00024,399.513,0.024,0.0842,0.0015,140.002,45.000,31472.97208,1.92318,399.916,31.188,45.059,45.000,0.00,0.11,-272.58,-272.64,-16,566,1,18.0,3.2,-27.1,18.2,3.4,-26.5,5.73,2.59,-13.2,24.5
2013-11-13 00:25:00,0.0,1.92111,0.00060,399.492,0.049,0.0855,0.0011,139.996,45.000,31471.84711,1.92292,399.913,31.188,45.059,45.000,0.00,0.11,-272.57,-272.64,-16,566,1,18.1,3.3,-26.9,18.2,3.4,-26.4,5.73,2.59,-13.2,24.5
2013-11-13 00:26:00,0.0,1.92139,0.00036,399.470,0.008,0.0878,0.0046,139.998,45.000,31470.11411,1.92302,399.884,31.188,45.059,45.000,0.00,0.11,-272.58,-272.64,-16,566,1,18.0,3.4,-26.6,18.2,3.5,-26.1,5.73,2.57,-13.2,24.5
2013-11-13 00:27:00,0.0,1.92092,0.00050,399.252,0.000,0.1084,0.0206,140.003,45.000,31473.32772,1.92283,399.797,31.175,45.059,45.000,0.00,0.11,-272.57,-272.64,-15,566,1,18.0,4.1,-24.5,18.2,4.3,-23.9,5.73,2.55,-13.2,24.5
2013-11-13 00:28:00,0.0,1.92086,0.00048,399.398,0.033,0.0912,0.0019,139.999,45.000,31473.93888,1.92275,399.825,31.171,45.059,45.000,0.00,0.11,-272.57,-272.64,-16,566,1,18.0,3.5,-26.1,18.2,3.7,-25.4,5.73,2.53,-13.2,24.5
2013-11-13 00:29:00,0.0,1.92061,0.00033,399.432,0.042,0.0916,0.0013,140.000,45.000,31473.87621,1.92235,399.870,31.160,45.059,45.000,0.00,0.11,-272.58,-272.64,-16,566,1,18.1,3.4,-26.3,18.2,3.6,-25.8,5.73,2.52,-13.2,24.5
2013-11-13 00:30:00,0.0,1.92112,0.00051,399.407,0.027,0.0902,0.0023,139.999,45.000,31473.77343,1.92265,399.848,31.183,45.059,45.000,0.00,0.11,-272.58,-272.64,-16,566,1,18.1,3.4,-26.3,18.2,3.6,-25.8,5.73,2.54,-13.2,24.5
2013-11-13 00:31:00,0.0,1.92138,0.00033,399.385,0.019,0.0902,0.0014,139.995,45.000,31473.36213,1.92318,399.818,31.185,45.059,45.000,0.00,0.11,-272.57,-272.64,-16,566,1,18.1,3.4,-26.3,18.2,3.6,-25.8,5.73,2.56,-13.2,24.5
2013-11-13 00:32:00,0.0,1.92034,0.00045,399.439,0.044,0.0894,0.0009,139.997,45.000,31474.61717,1.92218,399.860,31.188,45.059,45.000,0.00,0.11,-272.58,-272.64,-16,566,1,18.1,3.4,-26.3,18.2,3.6,-25.7,5.73,2.58,-13.2,24.5
2013-11-13 00:33:00,0.0,1.92012,0.00029,399.489,0.021,0.0911,0.0020,140.008,45.000,31477.54815,1.92187,399.925,31.188,45.059,45.000,0.00,0.11,-272.58,-272.64,-15,566,1,18.1,3.5,-26.2,18.2,3.6,-25.6,5.73,2.59,-13.2,24.6
2013-11-13 00:34:00,0.0,1.92073,0.00046,399.478,0.038,0.0906,0.0014,140.000,45.000,31474.18277,1.92224,399.922,31.188,45.059,45.000,0.00,0.11,-272.58,-272.64,-16,566,1,18.2,3.5,-26.2,18.2,3.6,-25.6,5.73,2.58,-13.2,24.6
2013-11-13 00:35:00,0.0,1.92101,0.00054,399.437,0.022,0.0926,0.0014,140.003,45.000,31477.07453,1.92290,399.880,31.190,45.059,45.000,0.00,0.11,-272.58,-272.63,-16,567,1,18.2,3.5,-26.2,18.2,3.6,-25.6,5.73,2.56,-13.2,24.6
2013-11-13 00:36:00,0.0,1.92093,0.00052,399.468,0.022,0.0906,0.0009,139.996,45.000,31474.97599,1.92265,399.903,31.192,45.059,45.000,0.00,0.11,-272.58,-272.64,-16,566,1,18.2,3.5,-26.1,18.2,3.6,-25.6,5.73,2.54,-13.2,24.5
2013-11-13 00:37:00,0.0,1.92108,0.00021,399.427,0.009,0.0906,0.0012,140.003,45.000,31476.43031,1.92269,399.865,31.209,45.059,45.000,0.00,0.11,-272.58,-272.64,-16,566,1,18.2,3.5,-26.1,18.2,3.6,-25.6,5.73,2.53,-13.2,24.5
2013-11-13 00:38:00,0.0,1.92013,0.00058,399.471,0.036,0.0916,0.0019,139.991,45.000,31473.48448,1.92196,399.904,31.205,45.059,45.000,0.00,0.11,-272.57,-272.63,-16,566,1,18.1,3.5,-26.2,18.2,3.6,-25.7,5.73,2.53,-13.2,24.5
2013-11-13 00:39:00,0.0,1.91945,0.00026,399.535,0.013,0.0921,0.0013,139.997,45.000,31474.60721,1.92140,399.973,31.195,45.059,45.000,0.00,0.11,-272.57,-272.64,-15,566,1,18.1,3.4,-26.3,18.2,3.6,-25.7,5.73,2.54,-13.2,24.5
2013-11-13 00:40:00,0.0,1.91930,0.00041,399.522,0.020,0.0910,0.0014,139.994,45.000,31473.47950,1.92098,399.963,31.188,45.059,45.000,0.00,0.11,-272.58,-272.64,-16,567,1,18.1,3.4,-26.3,18.2,3.6,-25.8,5.73,2.57,-13.2,24.5
2013-11-13 00:41:00,0.0,1.91935,0.00022,399.515,0.022,0.0899,0.0011,139.996,45.000,31475.56263,1.92114,399.945,31.188,45.059,45.000,0.00,0.11,-272.57,-272.64,-16,566,1,18.1,3.4,-26.3,18.2,3.6,-25.8,5.73,2.59,-13.2,24.5
2013-11-13 00:42:00,0.0,1.91952,0.00020,399.552,0.018,0.0901,0.0017,140.004,45.000,31475.02367,1.92118,399.982,31.188,45.059,45.000,0.00,0.11,-272.58,-272.63,-16,566,1,18.1,3.4,-26.3,18.2,3.6,-25.8,5.73,2.59,-13.2,24.5
2013-11-13 00:43:00,0.0,1.91974,0.00071,399.516,0.069,0.0879,0.0021,140.008,45.000,31476.71500,1.92114,399.950,31.188,45.059,45.000,0.00,0.11,-272.58,-272.64,-16,566,1,18.1,3.4,-26.5,18.2,3.6,-25.9,5.73,2.57,-13.2,24.5
2013-11-13 00:44:00,0.0,1.92092,0.00153,399.341,0.073,0.0846,0.0015,139.999,45.000,31472.62883,1.92291,399.766,31.188,45.059,45.000,0.00,0.11,-272.58,-272.63,-16,566,1,18.1,3.3,-26.8,18.2,3.5,-26.2,5.73,2.55,-13.2,24.5
2013-11-13 00:45:00,0.0,1.91902,0.00025,399.520,0.110,0.0812,0.0010,140.000,45.000,31473.57717,1.92048,399.884,31.161,45.059,45.000,0.00,0.11,-272.58,-272.64,-15,566,1,18.0,3.2,-27.1,18.2,3.4,-26.5,5.73,2.52,-13.2,24.5
2013-11-13 00:46:00,0.0,1.91878,0.00035,399.561,0.025,0.0798,0.0010,139.997,45.000,31474.85713,1.92043,399.947,31.159,45.059,45.000,0.00,0.11,-272.58,-272.64,-16,566,1,18.0,3.1,-27.3,18.2,3.3,-26.8,5.73,2.52,-13.2,24.5
2013-11-13 00:47:00,0.0,1.91844,0.00045,399.677,0.094,0.0820,0.0008,140.002,45.000,31474.32597,1.91993,400.055,31.136,45.059,45.000,0.00,0.11,-272.57,-272.64,-16,566,1,18.0,3.1,-27.3,18.2,3.3,-26.7,5.73,2.54,-13.2,24.5
2013-11-13 00:48:00,0.0,1.91864,0.00011,399.881,0.047,0.0849,0.0016,140.003,45.000,31474.85838,1.92026,400.277,31.135,45.059,45.000,0.00,0.11,-272.57,-272.63,-16,566,1,18.0,3.2,-27.2,18.1,3.3,-26.6,5.73,2.56,-13.2,24.5
2013-11-13 00:49:00,0.0,1.91867,0.00042,399.865,0.005,0.0837,0.0018,140.007,45.000,31474.75593,1.92022,400.274,31.151,45.059,45.000,0.00,0.11,-272.58,-272.64,-16,566,1,18.0,3.2,-27.0,18.2,3.4,-26.4,5.73,2.59,-13.3,24.5
2013-11-13 00:50:00,0.0,1.91853,0.00022,399.803,0.048,0.0845,0.0010,139.999,45.000,31472.77870,1.92017,400.216,31.162,45.059,45.000,0.00,0.11,-272.58,-272.64,-15,566,1,18.0,3.3,-26.9,18.1,3.4,-26.4,5.73,2.59,-13.2,24.5
2013-11-13 00:51:00,0.0,1.91880,0.00021,399.867,0.029,0.0855,0.0021,139.995,45.000,31471.86914,1.92033,400.266,31.164,45.059,45.000,0.00,0.11,-272.58,-272.63,-15,566,1,18.0,3.3,-26.9,18.1,3.4,-26.3,5.73,2.58,-13.2,24.5
2013-11-13 00:52:00,0.0,1.91897,0.00039,399.919,0.000,0.0863,0.0019,139.996,45.000,31470.88189,1.92059,400.334,31.135,45.059,45.000,0.00,0.11,-272.58,-272.64,-16,566,1,18.0,3.3,-26.9,18.1,3.5,-26.2,5.73,2.56,-13.2,24.5
2013-11-13 00:53:00,0.0,1.91928,0.00043,399.852,0.058,0.0852,0.0011,139.999,45.000,31471.19909,1.92082,400.274,31.132,45.059,45.000,0.00,0.11,-272.58,-272.64,-16,566,1,18.0,3.3,-26.8,18.1,3.5,-26.2,5.73,2.54,-13.2,24.5
2013-11-13 00:54:00,0.0,1.91947,0.00018,399.963,0.124,0.0859,0.0020,140.006,45.000,31471.71309,1.92109,400.346,31.125,45.059,45.000,0.00,0.11,-272.57,-272.64,-16,566,1,18.0,3.3,-26.8,18.1,3.5,-26.2,5.73,2.52,-13.2,24.5
2013-11-13 00:55:00,0.0,1.91956,0.00019,400.082,0.000,0.0874,0.0020,140.006,45.000,31471.39340,1.92117,400.501,31.125,45.059,45.000,0.00,0.11,-272.57,-272.64,-16,566,1,18.0,3.3,-26.7,18.1,3.5,-26.1,5.73,2.53,-13.2,24.5
2013-11-13 00:56:00,0.0,1.91975,0.00011,400.137,0.060,0.0872,0.0006,140.001,45.000,31470.92581,1.92139,400.546,31.125,45.059,45.000,0.00,0.11,-272.57,-272.65,-15,566,1,18.0,3.4,-26.6,18.1,3.5,-26.0,5.73,2.55,-13.3,24.4
2013-11-13 00:57:00,0.0,1.91928,0.00035,400.196,0.005,0.0879,0.0007,140.000,45.000,31469.90110,1.92096,400.621,31.123,45.059,45.000,0.00,0.11,-272.58,-272.64,-16,566,1,18.0,3.4,-26.6,18.1,3.5,-26.1,5.73,2.57,-13.3,24.5
2013-11-13 00:58:00,0.0,1.91986,0.00039,400.261,0.065,0.0879,0.0012,139.994,45.000,31465.44944,1.92153,400.670,31.117,45.059,45.000,0.00,0.11,-272.57,-272.63,-16,566,1,18.0,3.4,-26.7,18.1,3.5,-26.1,5.73,2.59,-13.3,24.4
2013-11-13 00:59:00,0.0,1.92054,0.00055,400.380,0.000,0.0879,0.0009,139.997,45.000,31469.20526,1.92202,400.803,31.121,45.059,45.000,0.00,0.11,-272.58,-272.64,-16,566,1,18.0,3.4,-26.6,18.1,3.5,-26.0,5.73,2.59,-13.2,24.4
2013-11-13 01:00:00,0.0,1.91943,0.00031,400.471,0.046,0.0881,0.0008,139.998,45.000,31470.40855,1.92126,400.886,31.117,45.059,45.000,0.00,0.11,-272.57,-272.63,-16,565,1,18.0,3.4,-26.6,18.1,3.5,-26.0,5.73,2.58,-13.3,24.4
2013-11-13 01:01:00,0.0,1.91882,0.00030,400.413,0.060,0.0871,0.0021,140.000,45.000,31471.45771,1.92058,400.851,31.117,45.059,45.000,0.00,0.11,-272.57,-272.63,-16,565,1,18.0,3.4,-26.6,18.1,3.5,-26.1,5.73,2.55,-13.3,24.4
2013-11-13 01:02:00,0.0,1.91896,0.00032,400.327,0.025,0.0868,0.0011,139.999,45.000,31470.80003,1.92052,400.751,31.120,45.059,45.000,0.00,0.11,-272.57,-272.63,-15,566,1,18.0,3.3,-26.7,18.1,3.5,-26.1,5.73,2.53,-13.2,24.5
2013-11-13 01:03:00,0.0,1.91816,0.00062,400.233,0.053,0.0845,0.0023,140.006,45.000,31474.95080,1.91997,400.652,31.125,45.059,45.000,0.00,0.11,-272.57,-272.64,-16,566,1,18.1,3.3,-26.8,18.2,3.4,-26.2,5.73,2.53,-13.3,24.5
2013-11-13 01:04:00,0.0,1.91744,0.00035,400.251,0.113,0.0840,0.0010,140.008,45.000,31476.04827,1.91906,400.660,31.125,45.059,45.000,0.00,0.11,-272.58,-272.64,-16,566,1,18.1,3.3,-26.9,18.2,3.4,-26.4,5.73,2.53,-13.3,24.5
2013-11-13 01:05:00,0.0,1.91798,0.00027,400.148,0.024,0.0863,0.0010,140.002,45.000,31475.93554,1.91948,400.557,31.125,45.059,45.000,0.00,0.11,-272.57,-272.64,-16,566,1,18.1,3.2,-26.9,18.2,3.4,-26.3,5.73,2.55,-13.3,24.5
2013-11-13 01:06:00,0.0,1.91816,0.00024,400.216,0.034,0.0852,0.0010,140.006,45.000,31476.45319,1.91980,400.627,31.125,45.059,45.000,0.00,0.11,-272.58,-272.64,-16,566,1,18.1,3.2,-26.9,18.2,3.4,-26.3,5.73,2.58,-13.3,24.5
2013-11-13 01:07:00,0.0,1.91823,0.00028,400.207,0.000,0.0850,0.0017,140.001,45.000,31475.69120,1.91978,400.614,31.125,45.059,45.000,0.00,0.11,-272.57,-272.64,-15,566,1,18.1,3.2,-26.9,18.2,3.4,-26.4,5.73,2.60,-13.3,24.5
2013-11-13 01:08:00,0.0,1.91847,0.00035,400.279,0.058,0.0850,0.0007,140.000,45.000,31474.15725,1.92018,400.681,31.125,45.059,45.000,0.00,0.11,-272.57,-272.64,-16,566,1,18.1,3.2,-27.0,18.2,3.4,-26.4,5.73,2.59,-13.3,24.5
2013-11-13 01:09:00,0.0,1.91877,0.00071,400.273,0.046,0.0856,0.0014,140.004,45.000,31475.26895,1.92010,400.695,31.125,45.059,45.000,0.00,0.11,-272.57,-272.64,-16,566,1,18.1,3.2,-26.9,18.2,3.4,-26.3,5.73,2.56,-13.3,24.5
2013-11-13 01:10:00,0.0,1.91867,0.00047,400.214,0.017,0.0856,0.0013,140.001,45.000,31473.98890,1.92048,400.625,31.125,45.059,45.000,0.00,0.11,-272.58,-272.64,-16,566,1,18.1,3.2,-27.0,18.2,3.4,-26.3,5.73,2.54,-13.3,24.5
2013-11-13 01:11:00,0.0,1.91844,0.00037,400.392,0.036,0.0854,0.0011,140.003,45.000,31472.77024,1.91996,400.790,31.125,45.059,45.000,0.00,0.11,-272.58,-272.63,-16,566,1,18.1,3.2,-27.0,18.2,3.4,-26.4,5.73,2.52,-13.3,24.5
2013-11-13 01:12:00,0.0,1.91887,0.00018,400.353,0.051,0.0853,0.0010,140.000,45.000,31475.00770,1.92051,400.776,31.125,45.059,45.000,0.00,0.11,-272.57,-272.64,-16,566,1,18.1,3.3,-26.9,18.2,3.4,-26.3,5.73,2.53,-13.3,24.5
2013-11-13 01:13:00,0.0,1.91918,0.00053,400.320,0.076,0.0870,0.0016,140.000,45.000,31472.40117,1.92068,400.722,31.122,45.059,45.000,0.00,0.11,-272.58,-272.64,-15,566,1,18.0,3.3,-26.9,18.2,3.4,-26.3,5.73,2.55,-13.3,24.5
2013-11-13 01:14:00,0.0,1.91994,0.00048,400.418,0.022,0.0868,0.0007,140.006,45.000,31473.36817,1.92142,400.842,31.125,45.059,45.000,0.00,0.11,-272.58,-272.64,-16,566,1,18.0,3.3,-26.8,18.1,3.4,-26.2,5.73,2.58,-13.3,24.5
2013-11-13 01:15:00,0.0,1.92089,0.00052,400.404,0.009,0.0877,0.0016,140.001,45.000,31473.78538,1.92249,400.827,31.115,45.059,45.000,0.00,0.11,-272.57,-272.63,-16,566,1,18.0,3.3,-26.7,18.1,3.5,-26.2,5.73,2.59,-13.3,24.5
2013-11-13 01:16:00,0.0,1.92135,0.00062,400.369,0.026,0.0867,0.0017,140.000,45.000,31472.75535,1.92272,400.793,31.118,45.059,45.000,0.00,0.11,-272.58,-272.64,-16,566,1,18.0,3.3,-26.7,18.1,3.5,-26.1,5.73,2.58,-13.3,24.5
2013-11-13 01:17:00,0.0,1.92222,0.00028,400.365,0.008,0.0862,0.0012,140.003,45.000,31471.79222,1.92389,400.778,31.125,45.059,45.000,0.00,0.11,-272.58,-272.64,-16,566,1,18.0,3.3,-26.7,18.1,3.5,-26.1,5.73,2.56,-13.3,24.5
2013-11-13 01:18:00,0.0,1.92072,0.00052,400.287,0.028,0.0885,0.0010,140.002,45.000,31469.56447,1.92261,400.720,31.122,45.059,45.000,0.00,0.11,-272.57,-272.63,-15,566,1,18.0,3.3,-26.7,18.1,3.5,-26.1,5.73,2.54,-13.3,24.4
2013-11-13 01:19:00,0.0,1.92108,0.00055,400.305,0.032,0.0873,0.0015,140.005,45.000,31468.58155,1.92246,400.722,31.125,45.059,45.000,0.00,0.11,-272.58,-272.64,-15,566,1,18.0,3.3,-26.7,18.1,3.5,-26.1,5.73,2.52,-13.3,24.4
2013-11-13 01:20:00,0.0,1.92129,0.00013,400.284,0.029,0.0883,0.0011,140.006,45.000,31468.22385,1.92304,400.712,31.115,45.059,45.000,0.00,0.11,-272.58,-272.64,-16,566,1,18.0,3.4,-26.6,18.1,3.5,-26.0,5.73,2.53,-13.3,24.4
2013-11-13 01:21:00,0.0,1.92121,0.00052,400.289,0.021,0.0890,0.0018,140.002,45.000,31469.28986,1.92298,400.712,31.095,45.059,45.000,0.00,0.11,-272.58,-272.64,-16,566,1,18.0,3.4,-26.6,18.1,3.6,-26.0,5.73,2.55,-13.3,24.4
2013-11-13 01:22:00,0.0,1.92060,0.00047,400.299,0.013,0.0895,0.0011,139.997,45.000,31468.25251,1.92222,400.731,31.079,45.059,45.000,0.00,0.11,-272.57,-272.63,-16,565,1,18.0,3.4,-26.5,18.1,3.6,-25.9,5.73,2.58,-13.3,24.4
2013-11-13 01:23:00,0.0,1.92030,0.00068,400.321,0.019,0.0899,0.0006,139.999,45.000,31467.42034,1.92223,400.749,31.068,45.059,45.000,0.00,0.11,-272.58,-272.64,-15,565,1,18.0,3.4,-26.4,18.1,3.6,-25.8,5.73,2.59,-13.3,24.4
2013-11-13 01:24:00,0.0,1.92106,0.00044,400.342,0.011,0.0894,0.0007,140.004,45.000,31469.62371,1.92253,400.773,31.082,45.059,45.000,0.00,0.11,-272.58,-272.64,-15,565,1,18.0,3.4,-26.4,18.1,3.6,-25.8,5.73,2.59,-13.3,24.4
2013-11-13 01:25:00,0.0,1.92092,0.00045,400.324,0.010,0.0902,0.0009,140.004,45.000,31469.48262,1.92263,400.763,31.071,45.059,45.000,0.00,0.11,-272.57,-272.63,-15,566,1,18.0,3.5,-26.3,18.1,3.6,-25.7,5.73,2.57,-13.3,24.4
2013-11-13 01:26:00,0.0,1.92106,0.00051,400.324,0.045,0.0916,0.0011,139.997,45.000,31464.98788,1.92284,400.755,31.065,45.059,45.000,0.00,0.11,-272.58,-272.64,-16,566,1,18.0,3.5,-26.3,18.1,3.6,-25.8,5.73,2.54,-13.3,24.4
2013-11-13 01:27:00,0.0,1.92131,0.00028,400.391,0.031,0.0907,0.0009,139.999,45.000,31464.21637,1.92292,400.830,31.063,45.059,45.000,0.00,0.11,-272.58,-272.64,-16,565,1,17.9,3.5,-26.3,18.1,3.6,-25.7,5.73,2.53,-13.3,24.4
2013-11-13 01:28:00,0.0,1.92182,0.00039,400.361,0.010,0.0916,0.0030,139.999,45.000,31464.72063,1.92365,400.802,31.063,45.059,45.000,0.00,0.11,-272.57,-272.64,-16,565,1,17.9,3.5,-26.2,18.1,3.7,-25.6,5.73,2.53,-13.3,24.4
2013-11-13 01:29:00,0.0,1.92232,0.00048,400.403,0.052,0.0923,0.0016,139.999,45.000,31464.06152,1.92389,400.838,31.063,45.059,45.000,0.00,0.11,-272.57,-272.64,-15,565,1,17.9,3.5,-26.2,18.0,3.7,-25.6,5.73,2.54,-13.3,24.4
2013-11-13 01:30:00,0.0,1.92231,0.00047,400.451,0.023,0.0919,0.0009,140.001,45.000,31463.17479,1.92416,400.895,31.063,45.059,45.000,0.00,0.11,-272.58,-272.64,-15,565,1,17.9,3.5,-26.2,18.0,3.7,-25.6,5.73,2.56,-13.3,24.4
2013-11-13 01:31:00,0.0,1.92179,0.00059,400.464,0.018,0.0925,0.0020,140.002,45.000,31463.23556,1.92337,400.913,31.063,45.059,45.000,0.00,0.11,-272.57,-272.64,-15,566,1,18.0,3.5,-26.2,18.0,3.7,-25.6,5.73,2.58,-13.3,24.4
2013-11-13 01:32:00,0.0,1.92288,0.00025,400.453,0.014,0.0927,0.0019,139.997,45.000,31463.31384,1.92460,400.897,31.063,45.059,45.000,0.00,0.11,-272.58,-272.64,-16,566,1,18.0,3.5,-26.1,18.1,3.7,-25.6,5.73,2.59,-13.3,24.4
2013-11-13 01:33:00,0.0,1.92162,0.00054,400.430,0.051,0.0932,0.0022,139.999,45.000,31464.92780,1.92352,400.888,31.065,45.059,45.000,0.00,0.11,-272.57,-272.64,-16,566,1,18.0,3.5,-26.1,18.1,3.7,-25.5,5.73,2.58,-13.3,24.4
2013-11-13 01:34:00,0.0,1.92089,0.00065,400.397,0.048,0.0934,0.0010,140.001,45.000,31467.25034,1.92283,400.839,31.068,45.059,45.000,0.00,0.11,-272.58,-272.64,-16,566,1,18.1,3.5,-26.0,18.1,3.7,-25.4,5.73,2.56,-13.3,24.5
2013-11-13 01:35:00,0.0,1.92057,0.00040,400.358,0.039,0.0940,0.0020,140.005,45.000,31467.31671,1.92245,400.821,31.063,45.059,45.000,0.00,0.11,-272.58,-272.64,-15,566,1,18.1,3.6,-25.9,18.2,3.7,-25.4,5.73,2.54,-13.3,24.5
2013-11-13 01:36:00,0.0,1.92064,0.00031,400.347,0.007,0.0944,0.0005,140.003,45.000,31466.17368,1.92241,400.800,31.068,45.059,45.000,0.00,0.11,-272.58,-272.64,-15,566,1,18.1,3.6,-25.9,18.2,3.8,-25.3,5.73,2.53,-13.3,24.5
2013-11-13 01:37:00,0.0,1.91988,0.00027,400.300,0.000,0.0960,0.0017,140.003,45.000,31467.21663,1.92175,400.768,31.082,45.059,45.000,0.00,0.11,-272.58,-272.64,-16,566,1,18.1,3.6,-25.7,18.2,3.8,-25.2,5.73,2.53,-13.3,24.4
2013-11-13 01:38:00,0.0,1.92016,0.00044,400.300,0.000,0.0955,0.0012,140.006,45.000,31469.20993,1.92191,400.760,31.095,45.059,45.000,0.00,0.11,-272.57,-272.63,-16,566,1,18.1,3.6,-25.7,18.2,3.8,-25.2,5.73,2.54,-13.3,24.4
2013-11-13 01:39:00,0.0,1.92053,0.00031,400.384,0.041,0.0970,0.0016,139.997,45.000,31465.39494,1.92240,400.840,31.073,45.059,45.000,0.00,0.11,-272.58,-272.64,-16,566,1,18.1,3.7,-25.7,18.1,3.8,-25.1,5.73,2.57,-13.3,24.4
2013-11-13 01:40:00,0.0,1.92043,0.00014,400.382,0.035,0.0952,0.0024,140.001,45.000,31468.33926,1.92219,400.848,31.063,45.059,45.000,0.00,0.11,-272.58,-272.64,-16,566,1,18.0,3.6,-25.7,18.1,3.8,-25.1,5.73,2.59,-13.3,24.4
2013-11-13 01:41:00,0.0,1.91999,0.00046,400.369,0.023,0.0972,0.0007,140.004,45.000,31468.16898,1.92196,400.838,31.063,45.059,45.000,0.00,0.11,-272.57,-272.64,-15,566,1,18.0,3.7,-25.7,18.1,3.8,-25.1,5.73,2.59,-13.3,24.4
2013-11-13 01:42:00,0.0,1.92064,0.00047,400.348,0.037,0.0967,0.0010,140.000,45.000,31467.79252,1.92222,400.813,31.060,45.059,45.000,0.00,0.11,-272.58,-272.63,-15,566,1,18.0,3.6,-25.7,18.1,3.8,-25.1,5.73,2.57,-13.3,24.4
2013-11-13 01:43:00,0.0,1.92121,0.00026,400.371,0.050,0.0975,0.0011,140.001,45.000,31469.91528,1.92311,400.845,31.063,45.059,45.000,0.00,0.11,-272.57,-272.64,-16,566,1,18.0,3.6,-25.7,18.1,3.8,-25.1,5.73,2.55,-13.3,24.4
2013-11-13 01:44:00,0.0,1.92096,0.00017,400.358,0.011,0.0956,0.0015,140.001,45.000,31469.33989,1.92278,400.819,31.063,45.059,45.000,0.00,0.11,-272.57,-272.64,-16,566,1,18.0,3.7,-25.7,18.1,3.8,-25.1,5.73,2.53,-13.3,24.4
2013-11-13 01:45:00,0.0,1.92086,0.00041,400.355,0.034,0.0970,0.0011,139.997,45.000,31468.41201,1.92274,400.824,31.063,45.059,45.000,0.00,0.11,-272.57,-272.64,-16,566,1,18.0,3.7,-25.7,18.1,3.8,-25.1,5.73,2.52,-13.3,24.4
2013-11-13 01:46:00,0.0,1.92059,0.00026,400.368,0.059,0.0954,0.0018,140.005,45.000,31469.25620,1.92244,400.816,31.063,45.059,45.000,0.00,0.11,-272.58,-272.64,-15,566,1,18.0,3.7,-25.7,18.1,3.8,-25.1,5.73,2.53,-13.3,24.4